Location: Colorado Springs
(38.8340°N, 104.8210°W)
Time: 05:09:14
(UTC-06:00)

Vanguard 2 - Visible Passes

Search period start: 19 October 2017 00:00
Search period end: 29 October 2017 00:00
Orbit: 554 x 2939 km, 32.9° (Epoch: 18 October)

Date Brightness Start Highest point End Pass type
(mag) Time Alt. Az. Time Alt. Az. Time Alt. Az.
19 Oct 11.9 06:28:48 10° S 06:39:34 21° SSE 06:48:23 10° ESE visible
20 Oct 11.7 06:44:46 10° SSW 06:57:42 27° SSE 07:07:46 10° E visible
21 Oct 12.0 04:58:22 10° SSE 05:05:03 13° SE 05:11:16 10° ESE visible
22 Oct 11.9 05:12:19 10° S 05:23:04 19° SE 05:32:35 10° ESE visible
23 Oct 11.7 05:27:57 10° SSW 05:41:03 26° SE 05:52:20 10° E visible
24 Oct 12.0 03:45:13 10° SE 03:48:30 11° SE 03:51:44 10° ESE visible
24 Oct 11.4 05:44:20 10° SSW 05:59:03 33° SSE 06:11:25 10° E visible
25 Oct 11.8 03:56:58 10° S 04:06:20 17° SE 04:15:25 10° ESE visible
25 Oct 11.2 06:01:16 10° SSW 06:17:06 41° SSE 06:30:06 10° E visible
26 Oct 11.7 04:12:00 10° S 04:24:09 23° SE 04:35:48 10° E visible
26 Oct 11.0 06:18:34 10° SW 06:35:11 48° SSE 06:48:35 10° E visible
27 Oct 11.4 04:28:06 10° SSW 04:41:59 30° SE 04:55:14 10° E visible
27 Oct 10.8 06:36:11 10° SW 06:53:20 55° SSE 07:06:56 10° E visible
28 Oct 11.8 02:43:27 10° SSE 02:49:42 13° SE 02:56:07 10° ESE visible
28 Oct 11.2 04:44:46 10° SSW 04:59:52 38° SSE 05:14:09 10° E visible
28 Oct 10.7 06:54:01 10° WSW 07:11:32 61° SSE 07:25:11 10° E visible
